Meridian, MS

8:51 PM CDT on June 27, 2017 (GMT -0500)
Key

Weather History for KMEI - December, 2012

Change the Weather History Date:

Sunday, December 16, 2012

  Actual Average Record
Temperature  
Mean Temperature 63 °F 47 °F  
Max Temperature 68 °F 58 °F 81 °F (1971)
Min Temperature 57 °F 36 °F 11 °F (1901)
Degree Days  
Heating Degree Days 2 18  
Month to date heating degree days 143 267  
Since 1 July heating degree days 670 717  
Cooling Degree Days 0 0  
Month to date cooling degree days 0 0  
Year to date cooling degree days 2177 2029  
Growing Degree Days 12 (Base 50)    
Moisture  
Dew Point 59 °F    
Average Humidity 91    
Maximum Humidity 100    
Minimum Humidity 81    
Precipitation  
Precipitation 1.05 in 0.16 in 1.19 in (1996)
Month to date precipitation 3.53 2.80  
Year to date precipitation 57.20 53.90  
Sea Level Pressure  
Sea Level Pressure 29.89 in    
Wind  
Wind Speed 7 mph (South)    
Max Wind Speed 20 mph    
Max Gust Speed 26 mph    
Visibility 7 miles    
Events Rain    
T = Trace of Precipitation, MM = Missing Value Source: NWS Daily Summary

Daily Weather History Graph

Daily Weather History Graph

Search for Another Location

Airport or City:

Trip Planner

Search our weather history database for the weather conditions in past years. The results will help you decide how hot, cold, wet, or windy it might be!

Date:

Astronomy

Dec. 16, 2012 Rise Set
Actual Time 6:49 AM CST 4:52 PM CST
Civil Twilight 6:22 AM CST 5:19 PM CST
Nautical Twilight 5:52 AM CST 5:49 PM CST
Astronomical Twilight 5:22 AM CST 6:19 PM CST
Moon 9:32 AM CST (12/16) 8:54 PM CST (12/16)
Length of Visible Light 10h 56m
Length of Day
10h 02m
Waxing Crescent, 16% of the Moon is Illuminated
Dec 16
Waxing Crescent
Dec 19
First Quarter
Dec 28
Full
Jan 4
Last Quarter
Jan 11
New

Hourly Weather History & Observations

Time (CST) Temp. Dew Point Humidity Pressure Visibility Wind Dir Wind Speed Gust Speed Precip Events Conditions
12:56 AM 62.6 °F 60.8 °F 94% 29.96 in 10.0 mi South 6.9 mph - N/A   Mostly Cloudy
12:58 AM 62.1 °F 60.1 °F 93% 29.96 in 10.0 mi South 8.1 mph - N/A   Mostly Cloudy
1:26 AM 62.6 °F 60.8 °F 94% 29.96 in 10.0 mi SSW 8.1 mph - N/A   Overcast
1:58 AM 62.1 °F 60.1 °F 93% 29.94 in 10.0 mi South 8.1 mph - N/A   Overcast
2:58 AM 61.0 °F 60.1 °F 97% 29.94 in 8.0 mi SSW 5.8 mph - N/A   Overcast
3:58 AM 61.0 °F 60.1 °F 97% 29.92 in 8.0 mi SSW 6.9 mph - N/A   Overcast
4:58 AM 62.1 °F 61.0 °F 96% 29.92 in 9.0 mi South 8.1 mph - N/A   Overcast
5:10 AM 62.6 °F 60.8 °F 94% 29.92 in 8.0 mi South 8.1 mph - N/A   Overcast
5:58 AM 62.1 °F 61.0 °F 96% 29.92 in 9.0 mi South 9.2 mph - N/A   Overcast
6:08 AM 62.6 °F 60.8 °F 94% 29.92 in 9.0 mi South 9.2 mph - N/A   Overcast
6:58 AM 62.1 °F 61.0 °F 96% 29.93 in 9.0 mi South 10.4 mph - N/A   Overcast
7:58 AM 63.0 °F 62.1 °F 97% 29.93 in 7.0 mi South 9.2 mph - N/A   Overcast
8:58 AM 64.0 °F 62.1 °F 93% 29.91 in 10.0 mi SSW 10.4 mph - N/A   Overcast
9:53 AM 66.2 °F 62.6 °F 88% 29.90 in 10.0 mi SSW 11.5 mph - N/A   Overcast
9:58 AM 66.2 °F 62.6 °F 88% 29.90 in 10.0 mi SSW 10.4 mph - N/A   Overcast
10:12 AM 66.2 °F 62.6 °F 88% 29.90 in 10.0 mi SSW 11.5 mph - N/A   Overcast
10:58 AM 68.0 °F 63.0 °F 84% 29.89 in 10.0 mi SSW 13.8 mph - N/A   Overcast
11:58 AM 66.9 °F 63.0 °F 87% 29.92 in 5.0 mi WSW 5.8 mph - 0.01 in Rain Rain
12:58 PM 61.0 °F 59.0 °F 93% 29.89 in 7.0 mi North 10.4 mph - 0.06 in Rain Light Rain
1:18 PM 60.8 °F 59.0 °F 94% 29.89 in 2.5 mi North 6.9 mph - 0.05 in Rain Heavy Rain
1:25 PM 59.0 °F 59.0 °F 100% 29.89 in 0.8 mi North 5.8 mph - 0.16 in Rain Heavy Rain
1:33 PM 59.0 °F 59.0 °F 100% 29.89 in 1.0 mi Calm Calm - 0.30 in Rain Heavy Rain
1:38 PM 59.0 °F 59.0 °F 100% 29.89 in 2.5 mi East 3.5 mph - 0.32 in Rain Rain
1:41 PM 59.0 °F 59.0 °F 100% 29.89 in 3.0 mi East 4.6 mph - 0.34 in Rain Rain
1:58 PM 59.0 °F 59.0 °F 100% 29.89 in 4.0 mi Calm Calm - 0.36 in Rain Rain
2:58 PM 59.0 °F 57.9 °F 96% 29.87 in 2.0 mi Calm Calm - 0.12 in Rain Heavy Rain
3:09 PM 59.0 °F 59.0 °F 100% 29.88 in 1.8 mi Calm Calm - 0.04 in Rain Rain
3:29 PM 59.0 °F 57.2 °F 94% 29.89 in 3.0 mi NW 3.5 mph - 0.12 in Rain Rain
3:49 PM 59.0 °F 57.2 °F 94% 29.89 in 1.8 mi Calm Calm - 0.16 in Rain Heavy Rain
3:58 PM 59.0 °F 59.0 °F 100% 29.90 in 2.0 mi Calm Calm - 0.20 in Rain Rain
4:23 PM 59.0 °F 57.2 °F 94% 29.88 in 3.0 mi Calm Calm - 0.08 in Rain Rain
4:58 PM 57.9 °F 57.9 °F 100% 29.87 in 7.0 mi Calm Calm - 0.14 in Rain Light Rain
5:58 PM 57.0 °F 57.0 °F 100% 29.89 in 7.0 mi SSE 4.6 mph - 0.04 in Rain Light Rain
6:56 PM 57.2 °F 57.2 °F 100% 29.87 in 9.0 mi SSE 8.1 mph - 0.07 in Rain Light Rain
6:58 PM 57.9 °F 57.9 °F 100% 29.87 in 9.0 mi SSE 8.1 mph - 0.07 in Rain Light Rain
7:58 PM 57.9 °F 57.0 °F 97% 29.82 in 10.0 mi SE 9.2 mph 21.9 mph 0.05 in Rain Light Rain
8:13 PM 57.2 °F 57.2 °F 100% 29.83 in 10.0 mi SSE 8.1 mph - 0.00 in   Overcast
8:58 PM 59.0 °F 57.0 °F 93% 29.83 in 10.0 mi South 11.5 mph 17.3 mph 0.00 in Rain Light Rain
9:58 PM 59.0 °F 57.9 °F 96% 29.85 in 10.0 mi South 4.6 mph - 0.00 in   Overcast
10:06 PM 59.0 °F 57.2 °F 94% 29.86 in 10.0 mi South 5.8 mph - N/A   Mostly Cloudy
10:58 PM 59.0 °F 57.9 °F 96% 29.83 in 10.0 mi SSE 11.5 mph - N/A   Mostly Cloudy
11:14 PM 59.0 °F 57.2 °F 94% 29.84 in 10.0 mi South 10.4 mph - N/A   Overcast
11:23 PM 59.0 °F 57.2 °F 94% 29.83 in 10.0 mi South 9.2 mph - N/A   Overcast
11:30 PM 59.0 °F 57.2 °F 94% 29.84 in 10.0 mi South 8.1 mph - N/A   Overcast
11:58 PM 59.0 °F 57.9 °F 96% 29.84 in 10.0 mi SSW 9.2 mph - N/A   Overcast